Wind_Speed
14 15 15 15 15 14 15 12 11 9 7 5 5 5 5 6 6 9 11 11 13 15 17 21 18 19 20 14 10 13 14 20 22 21 20 15 16 18 17 14 16 17 16
10 11 12 15 16 14 13 13 12 10 7 7 7 7 5 8 3 6 6 6 10 11 15 17 16 19 17 14 14 15 18 22 19 16 16 19 20 19 17 21 17 18 15
6 7 9 10 11 11 11 13 13 14 12 10 9 10 6 4 5 3 4 6 5 8 9 10 10 8 11 14 13 12 13 17 19 18 15 18 18 21 19 17 25 20 18
8 7 9 6 6 7 8 10 11 11 10 10 8 8 7 8 6 6 7 7 8 8 8 7 6 5 6 8 8 10 11 10 13 15 14 15 15 17 18 19 22 23 23
2 7 11 12 7 3 4 6 7 7 8 7 8 8 7 7 9 8 10 10 8 7 6 6 6 6 6 7 8 9 10 10 10 11 12 12 12 15 16 17 18 16 21
5 7 10 11 12 8 5 4 8 9 9 9 8 8 8 8 7 9 10 10 10 9 9 6 6 6 7 7 8 9 9 9 11 12 12 12 10 9 11 15 14 18 21
3 8 11 10 6 8 7 5 8 10 10 10 9 8 6 8 8 10 11 10 9 10 10 9 7 7 6 5 5 7 10 12 13 14 14 14 14 12 11 15 14 23 25
5 8 9 3 6 4 6 6 6 8 9 9 8 8 9 11 12 13 14 14 12 10 10 11 10 8 9 9 11 11 11 12 13 14 14 15 16 16 15 14 14 10 12
6 5 4 4 3 4 6 8 8 8 8 8 8 8 10 10 12 13 16 19 17 14 11 12 12 13 14 15 15 16 16 15 14 14 15 16 18 18 17 16 15 14 14
7 5 4 7 3 4 5 6 8 8 7 8 10 9 10 11 12 12 14 14 15 14 12 13 14 15 16 18 18 17 17 17 18 19 18 19 20 21 19 18 16 14 15
13 30 6 7 4 5 5 7 7 7 7 7 7 8 8 10 12 14 14 10 4 8 11 12 14 16 17 17 18 20 21 22 21 20 18 19 23 25 22 21 21 21 20
18 16 12 11 8 8 6 8 10 10 10 11 9 9 10 12 13 13 13 10 8 11 13 14 16 18 20 22 23 22 21 21 20 22 24 24 27 26 25 25 24 24 24
18 17 19 9 11 9 11 11 11 11 11 11 10 11 13 13 15 15 14 13 11 12 14 17 18 22 24 24 21 20 21 23 24 25 26 27 29 28 25 23 23 24 24
22 21 19 14 11 17 17 17 17 17 16 16 15 15 17 18 20 16 18 16 17 15 14 17 19 21 22 23 24 25 26 26 26 27 29 29 27 25 25 25 23 23 25
7 11 12 15 14 22 23 25 26 24 22 19 17 20 19 18 17 17 16 20 23 24 22 22 20 22 23 24 26 28 31 32 31 29 26 26 25 26 26 28 29 27 26
3 7 11 17 22 25 22 27 35 34 19 20 16 20 17 16 16 18 13 12 14 21 27 22 22 23 25 27 29 30 32 32 30 29 28 27 29 30 31 30 30 31 31
17 17 13 17 23 22 23 27 22 28 23 22 24 22 18 12 15 16 16 17 18 19 18 17 23 23 25 28 29 30 30 30 30 31 30 29 30 32 34 36 36 36 35
18 12 13 16 18 15 16 22 25 24 27 30 29 22 14 17 23 23 24 22 19 23 27 23 20 22 29 35 37 35 34 32 34 34 33 32 32 34 35 36 38 39 39
10 12 14 14 17 16 15 21 24 23 24 22 24 22 20 21 26 24 26 26 26 26 27 23 23 26 27 29 31 33 35 36 37 38 38 39 38 37 36 35 36 39 41
14 18 17 18 18 16 15 16 21 22 24 23 24 24 23 23 24 25 27 29 30 30 28 27 27 28 29 31 33 34 36 37 40 40 42 42 41 40 39 39 39 40 43
24 24 23 26 29 10 16 17 22 25 24 24 23 24 24 26 28 28 29 30 29 29 30 31 32 33 33 34 35 37 38 40 42 43 43 44 44 44 45 47 49 50 50
21 25 21 19 19 15 18 20 21 22 26 28 26 26 28 30 30 31 30 29 30 31 33 35 35 36 36 37 38 39 41 42 43 44 45 46 46 48 51 52 55 57 58
23 22 20 19 18 21 22 22 24 27 26 23 24 28 33 32 31 30 29 31 32 35 36 37 38 38 38 39 40 42 44 45 46 47 47 48 51 54 56 58 59 61 62
25 21 16 19 22 24 25 25 25 27 29 29 29 30 31 30 29 30 32 34 36 36 37 39 39 38 40 41 42 43 44 46 47 48 50 52 54 56 58 59 61 64 64
19 18 17 19 22 26 25 26 28 30 31 31 31 31 32 31 32 34 36 37 37 37 38 38 38 38 40 42 44 47 49 50 50 51 52 52 52 52 54 57 58 59 62
21 21 19 22 25 22 21 24 27 31 31 31 30 31 34 35 36 37 37 37 38 40 39 40 41 43 44 46 47 47 46 47 50 51 49 48 48 50 53 56 56 59 63
Wind_Direction
11 21 32 49 65 79 82 86 78 74 96 148 109 43 356 300 283 281 266 271 284 277 289 288 269 262 262 271 264 291 293 290 290 285 288 282 281 269 260 257 258 260 257
355 8 27 37 50 59 67 78 88 90 77 52 55 58 43 15 25 27 336 292 298 302 301 300 289 262 250 242 278 285 294 295 304 289 280 282 274 274 282 251 259 253 254
337 329 15 33 48 49 52 69 71 69 57 41 37 50 28 325 345 358 294 301 317 319 310 295 295 247 241 254 278 288 302 313 312 307 298 282 281 278 285 275 252 245 252
277 290 341 351 28 49 43 43 49 56 49 49 35 32 17 352 355 339 334 2 11 15 4 351 334 324 295 288 295 300 307 320 330 329 313 289 282 285 279 269 265 249 247
130 305 312 302 305 321 349 21 31 31 29 11 9 359 359 354 2 338 333 333 346 353 359 357 353 333 323 316 317 321 319 327 325 340 336 310 297 288 279 284 272 263 253
36 329 355 327 275 275 287 353 2 2 3 347 338 322 317 318 323 321 328 332 322 316 320 331 335 337 332 335 331 327 333 337 346 351 354 358 333 319 336 296 288 269 257
265 303 331 347 310 258 276 315 342 344 355 344 330 319 311 300 294 291 292 300 308 308 304 300 299 299 296 295 304 319 332 336 339 344 352 356 354 346 334 331 316 284 310
312 289 310 358 359 298 296 307 324 334 349 352 342 338 318 303 297 285 275 274 274 284 300 301 298 295 296 303 308 309 314 319 326 330 334 341 346 339 334 334 335 334 290
292 315 263 299 353 308 305 318 321 336 347 340 326 317 312 319 320 308 291 277 272 264 266 279 289 298 302 303 302 305 308 308 308 311 315 319 322 327 324 324 327 329 324
298 274 252 266 281 282 294 334 327 340 339 332 327 324 324 326 329 335 332 305 279 266 275 285 294 299 300 300 301 301 301 300 303 304 304 309 315 317 315 312 308 309 307
307 309 262 249 258 272 314 307 317 333 330 323 325 327 324 323 337 348 350 343 313 290 292 296 297 296 293 293 294 292 294 296 298 298 300 310 313 306 300 297 298 298 295
335 348 239 222 234 259 263 286 296 309 311 306 299 303 310 316 324 329 331 327 305 281 272 282 288 288 292 296 296 294 297 299 301 296 299 300 303 299 295 296 294 291 289
330 300 279 224 221 260 274 274 280 290 295 301 285 302 312 309 313 311 310 311 305 301 299 291 285 282 287 287 287 290 295 295 291 291 293 295 297 297 296 294 295 296 297
329 327 279 271 229 273 271 277 276 281 275 277 285 283 305 300 318 306 301 278 275 273 274 281 280 281 282 282 288 289 288 287 286 287 289 291 293 294 295 295 294 293 294
319 326 318 289 266 266 278 285 277 269 261 249 270 274 294 316 327 328 301 290 281 273 267 269 275 272 273 280 282 283 287 291 293 293 293 293 292 292 294 296 296 295 292
339 306 283 270 286 267 267 262 255 239 235 220 248 261 278 297 322 335 323 292 300 299 269 265 273 274 281 280 282 289 292 293 294 294 295 295 297 296 294 293 292 293 293
312 316 297 265 266 284 289 291 275 305 313 281 292 265 269 288 310 312 320 314 321 331 324 289 279 273 285 287 291 294 292 290 290 292 294 298 299 299 299 298 296 294 291
320 296 269 255 271 284 296 305 316 325 314 315 311 315 297 318 307 303 303 302 303 305 312 311 304 291 284 285 288 291 291 295 298 298 297 297 297 297 293 293 293 292 292
317 296 284 284 285 291 299 308 310 323 321 308 316 318 313 301 305 301 301 305 303 304 302 305 305 299 297 295 295 296 298 298 298 297 296 297 297 293 289 286 286 289 292
306 299 288 278 279 284 300 306 306 319 313 296 299 304 304 302 303 303 305 305 305 303 307 306 301 297 296 295 296 295 295 295 295 300 302 300 299 296 295 294 293 292 291
276 286 281 280 257 302 308 310 309 310 302 303 295 293 299 302 304 304 303 299 303 309 307 302 300 298 298 299 298 298 297 298 299 300 300 301 301 298 297 297 299 298 296
271 277 270 277 287 307 306 305 298 291 290 292 290 292 299 302 303 301 301 307 307 306 304 301 302 303 301 297 296 295 297 300 301 300 299 299 300 301 302 302 302 301 300
267 271 273 280 290 297 293 290 293 298 292 291 293 294 295 294 296 298 297 295 295 298 302 301 300 297 295 296 297 299 302 302 302 301 301 301 301 301 302 302 300 297 295
268 263 278 289 294 298 300 298 293 289 287 288 289 290 291 292 291 289 289 290 292 295 295 296 296 296 298 300 302 302 302 302 302 301 301 301 301 301 300 300 300 299 298
258 280 299 298 298 296 291 288 288 288 288 292 295 296 296 294 291 291 294 295 294 295 295 293 293 294 298 301 301 303 303 301 300 300 300 301 301 302 302 302 302 302 301
281 282 298 296 297 300 304 302 299 296 295 296 294 292 292 292 292 292 295 295 295 296 296 294 291 290 296 300 301 300 300 299 300 301 302 303 304 305 305 304 305 306 305
Height
5904 5901 5899 5897 5895 5894 5892 5894 5895 5895 5895 5895 5896 5893 5893 5894 5893 5893 5891 5890 5890 5888 5887 5886 5887 5885 5887 5888 5886 5886 5885 5883 5881 5879 5878 5877 5876 5875 5874 5875 5875 5875 5876
5906 5905 5901 5899 5897 5895 5896 5895 5894 5895 5895 5895 5894 5893 5893 5893 5892 5892 5892 5891 5889 5887 5885 5883 5881 5881 5884 5885 5884 5884 5883 5881 5877 5876 5875 5875 5873 5872 5871 5871 5871 5872 5872
5907 5908 5905 5903 5901 5899 5899 5896 5894 5894 5894 5895 5895 5893 5894 5893 5893 5894 5893 5891 5889 5887 5884 5882 5880 5880 5881 5882 5882 5880 5881 5877 5873 5872 5872 5871 5869 5867 5868 5867 5866 5867 5868
5906 5906 5906 5906 5904 5902 5902 5899 5896 5895 5896 5897 5896 5896 5896 5896 5894 5893 5891 5889 5888 5886 5883 5881 5880 5879 5879 5879 5878 5878 5877 5876 5872 5870 5868 5867 5866 5864 5864 5863 5862 5862 5864
5907 5907 5906 5905 5905 5904 5903 5901 5900 5899 5898 5899 5897 5897 5897 5896 5895 5893 5889 5887 5886 5884 5883 5881 5880 5879 5878 5877 5876 5876 5876 5874 5872 5869 5866 5864 5862 5861 5860 5859 5859 5857 5860
5907 5905 5904 5904 5903 5903 5904 5902 5901 5900 5898 5897 5896 5896 5896 5894 5893 5892 5890 5887 5885 5884 5883 5881 5880 5879 5878 5878 5877 5876 5875 5872 5869 5867 5865 5862 5860 5858 5857 5855 5853 5852 5853
5907 5905 5904 5903 5901 5901 5900 5899 5898 5898 5896 5896 5895 5894 5893 5891 5890 5889 5888 5887 5886 5884 5883 5881 5880 5879 5879 5877 5876 5874 5872 5869 5868 5865 5863 5861 5859 5857 5855 5853 5849 5845 5846
5905 5904 5901 5901 5900 5898 5898 5896 5895 5895 5895 5894 5893 5892 5890 5888 5887 5886 5885 5885 5883 5882 5882 5881 5880 5879 5877 5875 5873 5871 5869 5867 5866 5864 5862 5860 5857 5855 5854 5852 5848 5846 5846
5901 5901 5900 5899 5896 5896 5896 5894 5894 5894 5894 5892 5891 5889 5888 5885 5883 5882 5881 5880 5880 5879 5879 5879 5878 5877 5876 5873 5871 5868 5867 5865 5863 5862 5860 5858 5855 5853 5851 5849 5846 5844 5842
5900 5898 5897 5897 5895 5894 5893 5891 5893 5892 5891 5890 5888 5885 5885 5883 5881 5879 5876 5874 5874 5875 5875 5875 5874 5873 5871 5870 5867 5866 5865 5863 5862 5860 5858 5855 5853 5850 5848 5845 5843 5841 5839
5898 5893 5894 5892 5892 5892 5889 5890 5890 5889 5887 5886 5885 5883 5882 5881 5879 5877 5875 5872 5871 5873 5873 5872 5871 5869 5867 5866 5864 5863 5861 5859 5857 5856 5854 5853 5849 5845 5842 5841 5838 5837 5835
5892 5889 5887 5885 5887 5888 5885 5886 5887 5886 5884 5883 5882 5880 5880 5879 5877 5875 5873 5871 5870 5869 5868 5868 5867 5866 5864 5862 5860 5859 5857 5855 5853 5851 5849 5847 5844 5841 5837 5833 5832 5831 5830
5887 5887 5883 5880 5880 5880 5881 5881 5880 5880 5880 5879 5879 5878 5877 5876 5874 5871 5868 5867 5866 5866 5865 5863 5861 5860 5858 5856 5855 5854 5852 5850 5847 5845 5843 5840 5837 5834 5831 5829 5825 5823 5822
5880 5881 5878 5874 5870 5875 5877 5876 5876 5875 5873 5873 5874 5873 5872 5870 5868 5865 5863 5861 5860 5860 5859 5857 5856 5855 5853 5851 5850 5849 5846 5843 5841 5838 5835 5832 5830 5827 5823 5822 5820 5817 5815
5876 5873 5872 5871 5869 5871 5871 5871 5867 5864 5863 5862 5865 5867 5868 5866 5861 5859 5858 5856 5853 5852 5850 5848 5847 5846 5845 5844 5843 5841 5838 5835 5833 5830 5827 5824 5822 5820 5817 5814 5811 5810 5807
5874 5874 5873 5871 5871 5870 5865 5858 5844 5812 5839 5843 5854 5860 5860 5861 5858 5855 5852 5850 5847 5844 5842 5841 5840 5838 5839 5838 5835 5833 5831 5828 5825 5822 5819 5817 5813 5811 5809 5806 5804 5802 5799
5872 5873 5870 5871 5871 5865 5863 5850 5833 5859 5857 5842 5853 5852 5852 5853 5853 5851 5850 5847 5845 5841 5838 5835 5833 5831 5831 5831 5828 5826 5823 5821 5819 5816 5812 5809 5806 5804 5800 5796 5793 5790 5789
5870 5868 5869 5867 5865 5863 5863 5858 5856 5858 5857 5853 5850 5847 5848 5848 5847 5844 5843 5843 5840 5836 5834 5832 5829 5826 5825 5824 5821 5819 5815 5812 5810 5807 5804 5801 5798 5796 5793 5789 5784 5780 5777
5867 5866 5865 5863 5860 5859 5859 5857 5855 5854 5848 5847 5846 5846 5845 5843 5841 5840 5837 5836 5834 5830 5828 5825 5823 5821 5819 5815 5813 5810 5807 5803 5800 5798 5794 5791 5788 5785 5783 5780 5777 5772 5767
5864 5863 5860 5860 5853 5854 5853 5853 5850 5848 5846 5844 5842 5841 5840 5839 5836 5834 5831 5829 5827 5824 5820 5819 5817 5814 5811 5808 5806 5802 5799 5795 5792 5787 5782 5778 5775 5772 5769 5767 5764 5761 5757
5860 5858 5856 5852 5832 5843 5848 5846 5844 5844 5842 5839 5838 5837 5834 5832 5829 5827 5825 5824 5821 5817 5816 5814 5811 5808 5805 5801 5798 5794 5790 5786 5782 5777 5773 5768 5764 5761 5757 5752 5749 5744 5741
5854 5853 5853 5847 5835 5842 5845 5845 5843 5842 5839 5836 5833 5829 5826 5824 5823 5821 5818 5815 5814 5812 5810 5807 5804 5800 5796 5793 5789 5785 5781 5776 5771 5767 5762 5757 5751 5747 5743 5738 5733 5728 5723
5847 5846 5846 5845 5843 5841 5839 5838 5836 5834 5832 5828 5826 5824 5822 5820 5817 5814 5811 5810 5808 5805 5802 5799 5795 5792 5788 5783 5779 5774 5769 5764 5759 5754 5748 5742 5737 5732 5726 5721 5715 5710 5706
5841 5840 5839 5839 5838 5835 5831 5828 5829 5828 5827 5824 5821 5820 5818 5815 5811 5808 5805 5802 5799 5795 5792 5789 5785 5781 5776 5772 5767 5762 5757 5752 5747 5741 5735 5729 5723 5717 5710 5704 5697 5690 5685
5833 5835 5834 5833 5831 5829 5826 5825 5825 5824 5821 5819 5816 5813 5811 5808 5804 5801 5797 5794 5791 5787 5783 5778 5775 5771 5766 5761 5756 5751 5746 5740 5734 5729 5724 5718 5711 5703 5696 5688 5681 5674 5666
5826 5827 5822 5822 5822 5821 5818 5818 5818 5817 5814 5811 5808 5805 5803 5800 5796 5792 5788 5785 5782 5778 5773 5769 5764 5759 5755 5750 5744 5738 5732 5727 5722 5716 5710 5704 5698 5691 5683 5676 5668 5660 5649